TimeCDT,TemperatureF,Dew PointF,Humidity,Sea Level PressureIn,VisibilityMPH,Wind Direction,Wind SpeedMPH,Gust SpeedMPH,PrecipitationIn,Events,Conditions,WindDirDegrees,DateUTC
12:15 AM,73.8,59.0,60,29.73,10.0,SSE,16.1,23.0,N/A,,Clear,150,2013-09-27 05:15:00
12:35 AM,74.3,58.6,58,29.73,10.0,SE,15.0,20.7,N/A,,Clear,140,2013-09-27 05:35:00
12:55 AM,74.3,58.8,58,29.73,10.0,SE,13.8,19.6,N/A,,Clear,140,2013-09-27 05:55:00
1:15 AM,74.1,58.6,58,29.73,10.0,SSE,17.3,23.0,N/A,,Clear,150,2013-09-27 06:15:00
1:35 AM,74.1,58.5,58,29.73,10.0,SSE,16.1,24.2,N/A,,Clear,150,2013-09-27 06:35:00
1:55 AM,73.9,58.5,58,29.73,10.0,SSE,13.8,20.7,N/A,,Clear,150,2013-09-27 06:55:00
2:15 AM,73.2,58.5,60,29.73,10.0,SSE,16.1,19.6,N/A,,Clear,160,2013-09-27 07:15:00
2:35 AM,73.6,58.3,59,29.73,10.0,SSE,12.7,21.9,N/A,,Clear,160,2013-09-27 07:35:00
2:55 AM,73.9,58.1,58,29.72,10.0,SSE,16.1,25.3,N/A,,Clear,160,2013-09-27 07:55:00
3:15 AM,73.2,58.1,59,29.72,10.0,SSE,13.8,21.9,N/A,,Clear,160,2013-09-27 08:15:00
3:35 AM,73.4,57.7,58,29.72,10.0,SSE,13.8,23.0,N/A,,Clear,160,2013-09-27 08:35:00
3:55 AM,74.3,57.2,55,29.71,10.0,SSE,15.0,21.9,N/A,,Clear,160,2013-09-27 08:55:00
4:15 AM,72.9,57.6,59,29.70,10.0,SSE,15.0,-,N/A,,Clear,160,2013-09-27 09:15:00
4:35 AM,73.6,57.2,56,29.70,10.0,SSE,17.3,25.3,N/A,,Clear,160,2013-09-27 09:35:00
4:55 AM,73.4,56.8,56,29.70,10.0,SSE,17.3,20.7,N/A,,Clear,160,2013-09-27 09:55:00
5:15 AM,73.4,56.5,55,29.70,10.0,SSE,18.4,25.3,N/A,,Clear,160,2013-09-27 10:15:00
5:35 AM,72.7,56.7,57,29.70,10.0,South,19.6,23.0,N/A,,Clear,170,2013-09-27 10:35:00
5:55 AM,72.5,56.8,58,29.71,10.0,SSE,13.8,20.7,N/A,,Clear,160,2013-09-27 10:55:00
6:15 AM,70.5,59.2,67,29.71,7.0,SSE,17.3,33.4,0.03,Rain-Thunderstorm,Heavy Thunderstorms and Rain,160,2013-09-27 11:15:00
6:35 AM,68.0,59.5,74,29.72,10.0,SSE,10.4,-,0.03,,Mostly Cloudy,150,2013-09-27 11:35:00
6:55 AM,68.0,59.0,73,29.72,10.0,SSE,9.2,-,0.03,,Scattered Clouds,150,2013-09-27 11:55:00
7:15 AM,67.5,59.0,74,29.72,10.0,SE,10.4,20.7,N/A,Rain,Light Rain,140,2013-09-27 12:15:00
7:35 AM,66.4,59.0,77,29.72,10.0,SE,9.2,-,N/A,,Scattered Clouds,130,2013-09-27 12:35:00
7:55 AM,66.2,58.3,76,29.72,10.0,SE,8.1,-,N/A,,Clear,130,2013-09-27 12:55:00
8:15 AM,67.1,58.1,73,29.72,10.0,SE,6.9,-,N/A,,Clear,140,2013-09-27 13:15:00
8:35 AM,67.8,58.6,72,29.73,10.0,SE,5.8,-,N/A,,Clear,140,2013-09-27 13:35:00
8:55 AM,68.0,58.1,71,29.74,10.0,SE,4.6,-,N/A,,Clear,140,2013-09-27 13:55:00
9:15 AM,69.3,57.6,66,29.73,10.0,SE,6.9,-,N/A,,Clear,140,2013-09-27 14:15:00
9:35 AM,72.1,57.2,59,29.74,10.0,SSE,13.8,18.4,N/A,,Clear,160,2013-09-27 14:35:00
9:55 AM,73.8,56.7,55,29.74,10.0,South,11.5,19.6,N/A,,Clear,170,2013-09-27 14:55:00
10:15 AM,74.8,55.6,51,29.74,10.0,South,16.1,20.7,N/A,,Clear,170,2013-09-27 15:15:00
10:35 AM,76.1,55.6,49,29.74,10.0,South,16.1,23.0,N/A,,Clear,170,2013-09-27 15:35:00
10:55 AM,77.4,55.2,46,29.75,10.0,South,18.4,25.3,N/A,,Clear,170,2013-09-27 15:55:00
11:15 AM,79.0,55.2,44,29.76,10.0,South,18.4,25.3,N/A,,Clear,180,2013-09-27 16:15:00
11:35 AM,79.7,55.4,43,29.75,10.0,South,19.6,25.3,N/A,,Clear,190,2013-09-27 16:35:00
11:55 AM,78.3,54.5,44,29.76,10.0,South,19.6,23.0,N/A,,Clear,190,2013-09-27 16:55:00
12:15 PM,78.1,54.5,44,29.76,10.0,South,16.1,-,N/A,,Clear,180,2013-09-27 17:15:00
12:35 PM,77.2,54.5,45,29.75,10.0,South,11.5,19.6,N/A,,Clear,170,2013-09-27 17:35:00
12:55 PM,79.9,54.9,42,29.76,10.0,South,18.4,24.2,N/A,,Clear,190,2013-09-27 17:55:00
1:15 PM,80.2,54.7,41,29.75,10.0,South,10.4,18.4,N/A,,Clear,180,2013-09-27 18:15:00
1:35 PM,81.5,54.3,39,29.76,10.0,SSW,13.8,20.7,N/A,,Clear,200,2013-09-27 18:35:00
1:55 PM,83.7,54.1,36,29.75,10.0,South,12.7,24.2,N/A,,Clear,180,2013-09-27 18:55:00
2:15 PM,84.7,54.0,35,29.74,10.0,South,13.8,-,N/A,,Clear,170,2013-09-27 19:15:00
2:35 PM,86.2,54.1,33,29.73,10.0,South,15.0,23.0,N/A,,Clear,170,2013-09-27 19:35:00
2:55 PM,85.5,54.3,34,29.72,10.0,South,17.3,21.9,N/A,,Clear,170,2013-09-27 19:55:00
3:15 PM,86.7,54.0,32,29.73,10.0,South,17.3,24.2,N/A,,Clear,190,2013-09-27 20:15:00
3:35 PM,84.2,55.2,37,29.73,10.0,SSE,13.8,23.0,N/A,,Clear,160,2013-09-27 20:35:00
3:55 PM,85.3,55.4,36,29.73,10.0,South,12.7,-,N/A,,Clear,170,2013-09-27 20:55:00
4:15 PM,85.1,55.2,36,29.72,10.0,South,11.5,18.4,N/A,,Clear,170,2013-09-27 21:15:00
4:35 PM,85.6,55.6,36,29.72,10.0,South,10.4,-,N/A,,Clear,170,2013-09-27 21:35:00
4:55 PM,84.2,55.8,38,29.72,10.0,SSW,6.9,-,N/A,,Scattered Clouds,200,2013-09-27 21:55:00
5:15 PM,75.7,55.4,49,29.72,10.0,NNW,17.3,20.7,N/A,,Overcast,330,2013-09-27 22:15:00
5:35 PM,74.1,55.0,51,29.72,10.0,NNW,13.8,-,N/A,,Mostly Cloudy,340,2013-09-27 22:35:00
5:55 PM,72.1,54.5,54,29.72,10.0,NNW,12.7,-,N/A,,Mostly Cloudy,330,2013-09-27 22:55:00
6:15 PM,70.5,53.8,55,29.72,10.0,NNW,11.5,-,N/A,,Mostly Cloudy,340,2013-09-27 23:15:00
6:35 PM,69.8,54.0,57,29.71,10.0,NNW,10.4,16.1,N/A,,Mostly Cloudy,340,2013-09-27 23:35:00
6:55 PM,68.5,53.8,59,29.72,10.0,NNW,12.7,-,N/A,,Mostly Cloudy,340,2013-09-27 23:55:00
7:15 PM,67.8,53.6,60,29.71,10.0,North,11.5,-,N/A,,Mostly Cloudy,350,2013-09-28 00:15:00
7:35 PM,67.6,54.0,61,29.73,10.0,NNW,6.9,-,N/A,,Mostly Cloudy,340,2013-09-28 00:35:00
7:55 PM,67.5,54.3,63,29.74,10.0,NNW,6.9,-,N/A,,Overcast,330,2013-09-28 00:55:00
8:15 PM,66.6,54.0,64,29.75,10.0,NNW,10.4,-,N/A,,Overcast,330,2013-09-28 01:15:00
8:35 PM,65.5,52.7,63,29.75,10.0,NNW,8.1,19.6,N/A,,Overcast,340,2013-09-28 01:35:00
8:55 PM,64.6,53.2,67,29.74,10.0,NW,11.5,16.1,N/A,,Mostly Cloudy,320,2013-09-28 01:55:00
9:15 PM,61.7,53.8,75,29.76,10.0,NNW,13.8,-,N/A,,Mostly Cloudy,330,2013-09-28 02:15:00
9:35 PM,60.1,53.6,79,29.73,10.0,North,8.1,-,N/A,,Scattered Clouds,360,2013-09-28 02:35:00
9:55 PM,59.5,53.2,80,29.72,10.0,North,5.8,-,N/A,,Scattered Clouds,360,2013-09-28 02:55:00
10:15 PM,59.9,53.2,79,29.71,10.0,NNE,5.8,-,N/A,,Mostly Cloudy,30,2013-09-28 03:15:00
10:35 PM,59.7,53.1,79,29.69,10.0,NE,8.1,-,N/A,,Mostly Cloudy,50,2013-09-28 03:35:00
10:55 PM,59.5,53.2,80,29.69,10.0,Calm,Calm,-,N/A,,Scattered Clouds,0,2013-09-28 03:55:00
11:15 PM,60.1,53.8,80,29.68,10.0,Calm,Calm,-,N/A,,Scattered Clouds,0,2013-09-28 04:15:00
11:35 PM,59.9,54.3,82,29.66,10.0,Calm,Calm,-,N/A,,Scattered Clouds,0,2013-09-28 04:35:00
11:55 PM,60.1,54.5,82,29.75,10.0,West,35.7,54.1,N/A,,Mostly Cloudy,260,2013-09-28 04:55:00